Powrót do katalogu

STARLINK-5265

AktywnyŁącznośćVLEO
NORAD 55317·PAYLOAD·🇺🇸 United States

Wystrzelony Jan 19, 2023 z Vandenberg Space Force Base

Loading…

Następne Przeloty (najbliższe 24 godziny)

TLE

ŚwieżeSource: CelesTrak SupGP

Epoka: Sep 14, 2026, 21:47 UTC

1 55317C 23010BA  26257.90812500  .00780200  00000+0  56314-1 0  2577
2 55317  69.9998 247.3614 0003083 266.0804 183.6411 15.03629864    19

Śledź STARLINK-5265 w czasie rzeczywistym z AllMySat

Download on the App Store